Terug naar catalogus

STARLINK-37425

ActiefCommunicatieSSO
NORAD 68815·PAYLOAD·🇺🇸 United States

Gelanceerd Apr 23, 2026 vanaf Vandenberg Space Force Base

Loading…

Volgende Passages (komende 24 uur)

TLE

VersSource: CelesTrak SupGP

Epoch: Sep 15, 2026, 04:26 UTC

1 68815C 26089P   26258.18520833 -.00050845  00000+0 -15782-2 0  2582
2 68815  97.2855 104.0328 0001905  90.3238 320.9265 15.33466977    13

Volg STARLINK-37425 in realtime met AllMySat

Download on the App Store